Regional Weather Roundup
Issued by NWS

Home | Current Version | Previous Version | Text Only | Print | Product List | Glossary On
Versions: 1 2 3 4 5 6 7 8 9 10 11 12 13 14 15 16 17 18 19 20 21 22 23 24 25 26 27 28 29 30 31 32 33 34 35 36 37 38 39 40 41 42 43 44 45 46 47 48 49
000
ASUS44 KBMX 191710
RWRAL

ALABAMA REGIONAL WEATHER ROUNDUP
NATIONAL WEATHER SERVICE BIRMINGHAM AL
1100 AM CST FRI DEC 19 2014

NOTE: "FAIR" INDICATES FEW OR NO CLOUDS BELOW 12,000 FEET
WITH NO SIGNIFICANT WEATHER AND/OR OBSTRUCTIONS TO VISIBILITY.

THE REMARK "TC" DENOTES TEMPERATURE IN DEGREES CELSIUS.

ALZ001>011-014-016>018-020-191800-
NORTH ALABAMA

CITY           SKY/WX    TMP DP  RH WIND       PRES   REMARKS
MUSCLE SHOALS  CLOUDY    42  33  70 E6        30.26F
HUNTSVILLE     CLOUDY    43  31  62 NE6       30.24F
DECATUR        CLOUDY    41  31  67 N5        30.25F
HALEYVILLE     CLOUDY    41  33  73 CALM      30.24F
GADSDEN        CLOUDY    43  30  61 N7        30.23F
$$

ALZ012-013-022-023-030>036-040>044-191800-
WEST CENTRAL ALABAMA

CITY           SKY/WX    TMP DP  RH WIND       PRES   REMARKS
TUSCALOOSA     CLOUDY    47  35  63 E6        30.22F
$$

ALZ015-024>027-033>036-040>044-191800-
CENTRAL ALABAMA

CITY           SKY/WX    TMP DP  RH WIND       PRES   REMARKS
BIRMINGHAM     CLOUDY    45  36  70 N5        30.22F
MONTGOMERY     CLOUDY    50  35  56 N3        30.21F
SHELBY CO ARPT CLOUDY    46  36  68 E3        30.21F
MAXWELL AFB    CLOUDY    48  37  63 N3        30.21F
GREENVILLE     FAIR      50  33  52 NE6       30.17F
$$

ALZ019-021-028-029-037-038-045>048-191800-
EAST CENTRAL ALABAMA

CITY           SKY/WX    TMP DP  RH WIND       PRES   REMARKS
ANNISTON       CLOUDY    45  36  70 CALM      30.21F
ALEXANDER CITY CLOUDY    49  33  54 N3        30.20F
AUBURN         CLOUDY    48  34  57 N3        30.22S
$$

ALZ051>064-191800-
SOUTHWEST ALABAMA

CITY           SKY/WX    TMP DP  RH WIND       PRES   REMARKS
MOBILE         PTSUNNY   48  41  76 E9        30.16F
BROOKLEY FIELD CLOUDY    50  44  80 NE10      30.19F
EVERGREEN      CLOUDY    55  35  47 E5        30.19F
$$

ALZ049-050-065>069-191800-
SOUTHEAST ALABAMA

CITY           SKY/WX    TMP DP  RH WIND       PRES   REMARKS
DOTHAN         CLOUDY    53  37  54 N5        30.23R
OZARK          CLOUDY    54  35  47 N3        30.20R
TROY           CLOUDY    52  36  54 CALM      30.19F
EUFAULA        FAIR      54  38  54 CALM      30.18F
$$


USA.gov is the U.S. government's official web portal to all federal, state and local government web resources and services.